Flag for Vietnam Weather past 2 weeks in Ho Chi Minh, Vietnam

Now
90 °F

Passing clouds.


Feels Like: 96 °F
Forecast: 80 / 95 °F
Wind: 3 mph from North

Location: Ho Chi Minh

Current Time: Apr 19, 2015 at 9:20:34 AM

Latest Report: Apr 19, 2015 at 9:00 AM


Visibility: N/A

Pressure: 29.86 "Hg

Humidity: 55%

Dew point: 72 °F

Location of Ho Chi MinhLocation

Historic Weather in Ho Chi Minh — Graph

°F

Ho Chi Minh temperature yesterday

Maximum temperature yesterday: 95 °F (at 1:00 PM)
Minimum temperature yesterday: 79 °F (at 5:00 AM)
Average temperature yesterday: 85 °F

Past Weeks' High & Low Weather Summary

 TemperatureHumidityPressure
High99 °F (Apr 8, 1:00 PM)94% (Apr 14, 2:00 AM)29.98 "Hg (Apr 14, 2:00 AM)
Low75 °F (Apr 13, 12:00 AM)27% (Apr 8, 1:00 PM)29.68 "Hg (Apr 4, 2:30 PM)
Average85 °F62%29.83 "Hg
* Reported Apr 4 8:00 AM — Apr 19 8:00 AM, Ho Chi Minh, Weather by CustomWeather, © 2015

Note: Actual official high and low records may vary slightly from our data, if they occured in-between our weather recording intervals... More about our weather records

Advertising

Ho Chi Minh weather history for previous 24 hours

 ConditionsComfort  
Time TempWeatherWind HumidityBarometerVisibility
8:00 AM
Sun, Apr 19
86 °FPassing clouds.5 mph66%29.86 "HgN/A
7:30 AM84 °FPassing clouds.6 mph74%29.83 "HgN/A
7:00 AM82 °FPassing clouds.5 mph79%29.83 "HgN/A
6:30 AM82 °FPassing clouds.5 mph79%29.83 "HgN/A
6:00 AM81 °FPassing clouds.5 mph84%29.83 "HgN/A
5:30 AM81 °FPassing clouds.5 mph84%29.80 "HgN/A
5:00 AM81 °FPassing clouds.2 mph84%29.80 "HgN/A
4:30 AM81 °FPassing clouds.3 mph84%29.80 "HgN/A
4:00 AM81 °FPassing clouds.5 mph84%29.77 "HgN/A
3:30 AM81 °FPassing clouds.5 mph84%29.77 "HgN/A
3:00 AM81 °FPassing clouds.5 mph84%29.77 "HgN/A
2:30 AM81 °FPassing clouds.7 mph84%29.77 "HgN/A
2:00 AM81 °FPassing clouds.7 mph84%29.77 "HgN/A
1:30 AM81 °FPassing clouds.7 mph84%29.80 "HgN/A
1:00 AM82 °FPassing clouds.6 mph79%29.80 "HgN/A
12:30 AM82 °FPassing clouds.8 mph79%29.83 "HgN/A
12:00 AM82 °FPassing clouds.10 mph74%29.83 "HgN/A
11:30 PM
Sat, Apr 18
82 °FPassing clouds.8 mph74%29.83 "HgN/A
11:00 PM82 °FPassing clouds.6 mph74%29.83 "HgN/A
10:30 PM82 °FPassing clouds.8 mph74%29.83 "HgN/A
10:00 PM82 °FPassing clouds.5 mph74%29.83 "HgN/A
9:30 PM82 °FPassing clouds.6 mph74%29.83 "HgN/A
9:00 PM82 °FPassing clouds.6 mph74%29.80 "HgN/A
8:30 PM84 °FPassing clouds.8 mph70%29.80 "HgN/A
8:00 PM84 °FPassing clouds.8 mph70%29.80 "HgN/A
7:30 PM84 °FPassing clouds.6 mph66%29.77 "HgN/A
7:00 PM84 °FPassing clouds.8 mph66%29.77 "HgN/A
6:30 PM86 °FPassing clouds.8 mph62%29.77 "HgN/A
6:00 PM86 °FPassing clouds.9 mph59%29.74 "HgN/A
5:30 PM88 °FPassing clouds.9 mph55%29.74 "HgN/A
5:00 PM90 °FPassing clouds.8 mph49%29.74 "HgN/A
4:30 PM91 °FPassing clouds.8 mph46%29.74 "HgN/A
4:00 PM91 °FPassing clouds.9 mph44%29.74 "HgN/A
3:30 PM93 °FPassing clouds.6 mph39%29.74 "HgN/A
3:00 PM95 °FScattered clouds.5 mph39%29.74 "HgN/A
2:30 PM95 °FScattered clouds.8 mph39%29.77 "HgN/A
2:00 PM93 °FScattered clouds.7 mph41%29.77 "HgN/A
1:30 PM93 °FScattered clouds.3 mph41%29.80 "HgN/A
1:00 PM95 °FScattered clouds.5 mph39%29.83 "HgN/A
12:30 PM93 °FScattered clouds.3 mph44%29.83 "HgN/A
12:00 PM91 °FScattered clouds.5 mph46%29.86 "HgN/A
11:30 AM93 °FScattered clouds.7 mph47%29.86 "HgN/A
11:00 AM90 °FScattered clouds.3 mph52%29.86 "HgN/A
10:30 AM88 °FScattered clouds.5 mph55%29.89 "HgN/A
10:00 AM90 °FPartly sunny.7 mph55%29.89 "HgN/A
9:30 AM88 °FPartly sunny.7 mph59%29.89 "HgN/A
9:00 AM86 °FPartly sunny.8 mph62%29.89 "HgN/A
Weather by CustomWeather, © 2015

See weather overviewHow to use our weather pages